Home   Weather   Naha   Past weeks

Flag for Japan Past Weather in Naha, Okinawa, Japan — Yesterday and Last 2 Weeks

Now
75 °F

Partly sunny.


Feels Like: 78 °F
Forecast: 65 / 73 °F
Wind: 15 mph from Northeast

Location: Naha Airport

Current Time: Dec 9, 2016 at 12:47:31 pm

Latest Report: Dec 9, 2016 at 12:00 pm


Visibility: N/A

Pressure: 29.98 "Hg

Humidity: 50%

Dew Point: 55 °F

Location of NahaLocation

Past Weather in Naha — Graph

°F

Naha Temperature Yesterday

Maximum temperature yesterday: 73 °F (at 11:30 am)
Minimum temperature yesterday: 66 °F (at 12:00 am)
Average temperature yesterday: 70 °F

High & Low Weather Summary for the Past Weeks

 TemperatureHumidityPressure
High82 °F (Dec 4, 1:00 pm)94% (Nov 27, 9:00 pm)30.30 "Hg (Nov 27, 9:00 pm)
Low66 °F (Nov 24, 3:00 pm)47% (Nov 29, 12:00 pm)29.89 "Hg (Nov 27, 4:30 am)
Average71 °F67%30.09 "Hg
* Reported Nov 24 11:00 am — Dec 9 11:30 am, Naha, Weather by CustomWeather, © 2016

Note: Actual official high and low records may vary slightly from our data, if they occured in-between our weather recording intervals... More about our weather records

Advertising

Naha Weather History for the Previous 24 Hours

Scroll right to see more
 ConditionsComfort  
Time TempWeatherWind HumidityBarometerVisibility
11:30 am
Fri, Dec 9
75 °FPartly sunny.14 mph47%29.98 "HgN/A
11:00 am73 °FPartly sunny.15 mph50%30.01 "HgN/A
10:30 am73 °FPartly sunny.12 mph53%30.01 "HgN/A
10:00 am73 °FPartly sunny.14 mph53%30.01 "HgN/A
9:30 am72 °FPartly sunny.12 mph61%30.01 "HgN/A
9:00 am72 °FPartly sunny.9 mph61%30.01 "HgN/A
8:30 am70 °FPartly sunny.8 mph69%30.01 "HgN/A
8:00 am70 °FPartly sunny.8 mph69%29.98 "HgN/A
7:30 am70 °FPartly sunny.6 mph69%29.98 "HgN/A
7:00 am70 °FPartly cloudy.6 mph69%29.98 "HgN/A
6:30 am70 °FPassing clouds.7 mph69%29.98 "HgN/A
6:00 am70 °FPassing clouds.7 mph69%29.95 "HgN/A
5:30 am70 °FPassing clouds.7 mph73%29.95 "HgN/A
5:00 am70 °FPassing clouds.8 mph73%29.95 "HgN/A
4:30 am70 °FPassing clouds.7 mph69%29.95 "HgN/A
4:00 am70 °FPassing clouds.8 mph73%29.95 "HgN/A
3:30 am70 °FPassing clouds.9 mph69%29.95 "HgN/A
3:00 am70 °FPassing clouds.9 mph73%29.95 "HgN/A
2:30 am70 °FPassing clouds.9 mph73%29.98 "HgN/A
2:00 am70 °FPassing clouds.9 mph73%29.98 "HgN/A
1:30 am70 °FPartly cloudy.8 mph69%29.98 "HgN/A
1:00 am70 °FPassing clouds.9 mph69%29.98 "HgN/A
12:30 am70 °FPassing clouds.9 mph69%29.95 "HgN/A
12:00 am70 °FPassing clouds.9 mph69%29.98 "HgN/A
11:30 pm
Thu, Dec 8
70 °FPassing clouds.9 mph69%29.98 "HgN/A
11:00 pm70 °FPassing clouds.10 mph69%29.98 "HgN/A
10:30 pm70 °FPartly cloudy.9 mph69%29.98 "HgN/A
10:00 pm70 °FPassing clouds.8 mph69%29.98 "HgN/A
9:30 pm70 °FPartly cloudy.8 mph69%29.98 "HgN/A
9:00 pm70 °FPassing clouds.8 mph69%29.98 "HgN/A
8:30 pm70 °FPassing clouds.10 mph64%29.98 "HgN/A
8:00 pm70 °FPassing clouds.8 mph69%29.98 "HgN/A
7:30 pm70 °FPassing clouds.7 mph64%29.98 "HgN/A
7:00 pm70 °FPartly cloudy.10 mph64%29.98 "HgN/A
6:30 pm70 °FPassing clouds.12 mph64%29.95 "HgN/A
6:00 pm72 °FPartly cloudy.7 mph61%29.95 "HgN/A
5:30 pm72 °FBroken clouds.8 mph61%29.95 "HgN/A
5:00 pm72 °FBroken clouds.8 mph57%29.95 "HgN/A
4:30 pm73 °FBroken clouds.7 mph53%29.95 "HgN/A
4:00 pm73 °FPartly sunny.8 mph53%29.95 "HgN/A
3:30 pm73 °FPartly sunny.7 mph53%29.95 "HgN/A
3:00 pm73 °FPartly sunny.8 mph53%29.95 "HgN/A
2:30 pm72 °FPartly sunny.10 mph57%29.95 "HgN/A
2:00 pm73 °FBroken clouds.12 mph53%29.95 "HgN/A
1:30 pm73 °FBroken clouds.9 mph50%29.98 "HgN/A
1:00 pm73 °FBroken clouds.10 mph50%29.98 "HgN/A
12:30 pm73 °FBroken clouds.9 mph50%29.98 "HgN/A
12:00 pm73 °FBroken clouds.9 mph53%30.01 "HgN/A
Weather by CustomWeather, © 2016

See weather overviewHow to use our weather pages